[[{"header":{"parameterUnit":"m.s-1","parameterCategory":1,"la1":30.2991,"la2":30.254,"lo1":-89.0895,"lo2":-89.0444,"dy":0.0017,"dx":0.0017,"nx":28,"ny":28,"refTime":"2024-08-22T21:00:00:Z","depth":0,"parameterNumber":2,"parameterNumberName":"U-component_of_WINDS"},"data":[0,0,0,0,0,0,0,0,0,0,0,0,0,0,0,0,0,0,0,0,0,0,0,0,0,0,0,0,0,0,0,0,0,0,0,0,0,0,0,0,0,0,0,0,0,0,0,0,0,0,0,0,0,0,0,0,0,0,-4.9503,-4.9504,0,-4.9584,-4.9585,-4.9585,-4.9503,-4.95,-4.9497,-4.9494,-4.9578,-4.9584,-4.9589,0,0,0,0,0,0,0,0,0,0,0,0,0,-4.9281,-4.9286,-4.9503,-4.9504,-4.9505,-4.9583,-4.9585,-4.9586,-4.9504,-4.95,-4.9496,-4.9492,-4.9577,-4.9583,-4.9589,0,0,0,0,0,0,0,0,0,0,0,0,0,-4.9372,-4.9287,-4.9503,-4.9474,-4.9472,-4.9583,-4.9585,-4.9586,-4.9505,-4.95,-4.9495,-4.949,-4.9575,-4.9582,-4.959,-4.9735,0,0,-4.9614,-4.9618,0,0,0,0,0,0,0,0,-4.9366,-4.938,-4.9477,-4.9476,-4.9474,-4.9528,-4.9537,-4.9636,-4.9506,-4.9492,-4.9494,-4.9488,-4.9566,-4.9574,-4.96,-4.9739,-4.9743,-4.9615,-4.962,-4.9623,-4.9625,0,0,0,0,0,0,0,-4.936,-4.9376,-4.9535,-4.9478,-4.9477,-4.9457,-4.9465,-4.9556,-4.9555,-4.9493,-4.9487,-4.9498,-4.9564,-4.9593,-4.9601,-4.9744,-4.9615,-4.9622,-4.9627,-4.963,-5.0009,-5.0014,0,0,0,0,0,0,-4.9357,-4.9371,-4.9532,-4.9537,-4.9407,-4.9465,-4.9474,-4.9516,-4.9554,-4.9555,-4.9502,-4.9494,-4.9581,-4.9592,-4.9604,-4.9778,-4.9623,-4.963,-4.9635,-5.0004,-5.001,-5.0016,0,0,0,0,0,0,-4.9353,-4.9372,-4.9529,-4.9453,-4.9471,-4.9474,-4.9522,-4.952,-4.9548,-4.9561,-4.956,-4.9531,-4.9578,-4.9593,-4.9704,-4.978,-4.9634,-4.9641,-4.9997,-5.0006,-5.0013,-5.0127,0,0,0,0,0,0,-4.9347,-4.9371,-4.9425,-4.9455,-4.9476,-4.9627,-4.9527,-4.9525,-4.9562,-4.9552,-4.9588,-4.9589,-4.9575,-4.9692,-4.9711,-4.9788,-4.9647,-4.9991,-5.0001,-5.0011,-5.0116,-5.0137,-5.0156,0,0,0,0,0,-4.9339,-4.9454,-4.9428,-4.9448,-4.9543,-4.9631,-4.9643,-4.9625,-4.9568,-4.9624,-4.9632,-4.9588,-4.9768,-4.9704,-4.9725,-4.9805,-4.9986,-4.9998,-5.001,-5.0107,-5.0133,-5.0155,0,0,0,0,0,0,-4.9434,-4.9457,-4.9429,-4.9557,-4.9593,-4.9617,-4.9686,-4.9653,-4.9706,-4.9694,-4.967,-4.9679,-4.9797,-4.9812,-4.974,-4.9949,-4.9868,-4.9885,-4.9935,-4.996,-4.9979,-4.9974,-4.9654,0,0,0,0,0,-4.9469,-4.9538,-4.9555,-4.9666,-4.9686,-4.9683,-4.9721,-4.9703,-4.974,-4.9755,-4.9771,-4.9809,-4.9874,-4.9917,-4.9978,-5.0118,-5.0126,-5.0183,-5.0203,-5.0219,-5.0235,-5.0312,-5.0339,-5.0056,-5.0055,-5.0055,0,0,-4.9544,-4.9565,-4.961,-4.9686,-4.9712,-4.9785,-4.9696,-4.9776,-4.9831,-4.9767,-4.9873,-4.9886,-4.9927,-5.0054,-5.011,-5.007,-5.0315,-5.0235,-5.0248,-5.0254,-5.0327,-5.0354,-5.0378,-5.0064,-5.0062,-5.0061,0,0,-4.9718,-4.974,-4.9836,-4.9864,-4.9904,-4.9902,-4.9925,-4.9955,-4.9962,-5.0067,-5.0022,-5.0086,-5.0199,-5.023,-5.0261,-5.0449,-5.0411,-5.0469,-5.0574,-5.0649,-5.0672,-5.0691,-5.0761,-5.0785,-5.0484,-5.0484,-5.0485,0,-4.9806,-4.9913,-4.989,-4.9974,-5.001,-4.9955,-5.0053,-5.0081,-5.014,-5.0166,-5.012,-5.0262,-5.0285,-5.0419,-5.0465,-5.0491,-5.0519,-5.0465,-5.067,-5.069,-5.0708,-5.0773,-5.0799,-5.0491,-5.0491,-5.049,-5.0489,0,-5.002,-5.0095,-5.0168,-5.0226,-5.0269,-5.036,-5.0352,-5.04,-5.0379,-5.0383,-5.0492,-5.0519,-5.0585,-5.0615,-5.0595,-5.0748,-5.0722,-5.0674,-5.0592,-5.0742,-5.0804,-5.0828,-5.0501,-5.0499,-5.0497,-5.0495,0,0,-5.0255,-5.03,-5.0327,-5.0354,-5.0395,-5.0453,-5.0542,-5.0607,-5.0649,-5.0691,-5.0767,-5.0864,-5.082,-5.0855,-5.0839,-5.0905,-5.1056,-5.0849,-5.085,-5.0888,-5.1227,-5.1265,-5.1294,-5.103,-5.1035,-5.1039,-5.1225,0,-5.0431,-5.0585,-5.0568,-5.0716,-5.0786,-5.0736,-5.0814,-5.0849,-5.0855,-5.0916,-5.0923,-5.0993,-5.0929,-5.095,-5.1014,-5.1024,-5.1124,-5.101,-5.1102,-5.1106,-5.1095,-5.1325,-5.1364,-5.1539,-5.1248,-5.1252,-5.1255,0,-5.0656,-5.0707,-5.0862,-5.0894,-5.0923,-5.0994,-5.1052,-5.1111,-5.115,-5.115,-5.1191,-5.1163,-5.1255,-5.1171,-5.1298,-5.1221,-5.1258,-5.1269,-5.1276,-5.1285,-5.1191,-5.1343,-5.1593,-5.162,-5.1292,-5.1289,-5.1287,0,-5.0815,-5.0922,-5.1029,-5.1053,-5.1093,-5.1144,-5.1163,-5.1197,-5.1238,-5.1289,-5.1316,-5.1378,-5.1412,-5.1461,-5.1453,-5.1392,-5.1583,-5.1498,-5.1587,-5.1588,-5.1631,-5.1628,-5.1893,-5.1652,-5.1652,-5.1651,-5.1651,0,-5.1013,-5.1111,-5.1101,-5.1167,-5.1275,-5.1255,-5.1363,-5.1376,-5.1407,-5.1476,-5.1437,-5.1502,-5.1486,-5.1552,-5.1545,-5.1653,-5.1668,-5.1672,-5.167,-5.1677,-5.1677,-5.1702,-5.169,-5.1658,-5.1657,-5.1655,-5.1654,0,-5.1209,-5.1206,-5.1319,-5.1348,-5.1358,-5.1437,-5.1462,-5.1525,-5.1528,-5.1616,-5.1636,-5.1641,-5.1717,-5.1713,-5.1798,-5.1794,-5.1927,-5.191,-5.1914,-5.1911,-5.2002,-5.1994,-5.2293,-5.2332,-5.2064,-5.2067,-5.2069,0,-5.1336,-5.141,-5.1447,-5.1491,-5.1513,-5.1583,-5.1625,-5.1609,-5.1654,-5.1705,-5.1763,-5.1834,-5.1891,-5.2015,-5.2027,-5.2093,-5.2078,-5.2178,-5.2088,-5.2093,-5.2082,-5.2078,-5.2087,-5.2196,-5.2199,-5.2202,-5.2204,0,-5.1564,-5.156,-5.162,-5.1682,-5.1733,-5.178,-5.1823,-5.1861,-5.185,-5.1903,-5.198,-5.2024,-5.2112,-5.2185,-5.2248,-5.2269,-5.2236,-5.2232,-5.2257,-5.2265,-5.2266,-5.2269,-5.1965,-5.2226,-5.2223,-5.2222,-5.2221,-5.222,-5.1731,-5.1795,-5.1832,-5.1902,-5.1933,-5.1975,-5.2036,-5.2047,-5.2111,-5.2181,-5.2168,-5.2255,-5.2294,-5.2376,-5.2403,-5.2472,-5.2436,-5.2472,-5.2481,-5.249,-5.2501,-5.2254,-5.2483,-5.2483,-5.2482,-5.2482,-5.2481,0,-5.1958,-5.1979,-5.2044,-5.2106,-5.2162,-5.2125,-5.2172,-5.2221,-5.2298,-5.2337,-5.2394,-5.2484,-5.2555,-5.2574,-5.2643,-5.2694,-5.2681,-5.2713,-5.271,-5.2716,-5.2528,-5.2501,-5.2723,-5.2723,-5.2723,-5.2723,-5.2723,-5.2723,-5.2083,-5.219,-5.219,-5.2313,-5.2334,-5.2419,-5.2449,-5.2489,-5.252,-5.2622,-5.2681,-5.2692,-5.2724,-5.2795,-5.286,-5.2863,-5.2891,-5.293,-5.2928,-5.2753,-5.2729,-5.2706,-5.268,-5.2936,-5.2936,-5.311,-5.3112,-5.3113]},{"header":{"parameterUnit":"m.s-1","parameterCategory":1,"la1":30.2991,"la2":30.254,"lo1":-89.0895,"lo2":-89.0444,"dy":0.0017,"dx":0.0017,"nx":28,"ny":28,"refTime":"2024-08-22T21:00:00:Z","depth":0,"parameterNumber":3,"parameterNumberName":"V-component_of_WINDS"},"data":[0,0,0,0,0,0,0,0,0,0,0,0,0,0,0,0,0,0,0,0,0,0,0,0,0,0,0,0,0,0,0,0,0,0,0,0,0,0,0,0,0,0,0,0,0,0,0,0,0,0,0,0,0,0,0,0,0,0,-2.5605,-2.5605,0,-2.5606,-2.5606,-2.5606,-2.5558,-2.5557,-2.5556,-2.5555,-2.5556,-2.5557,-2.5558,0,0,0,0,0,0,0,0,0,0,0,0,0,-2.556,-2.5561,-2.5605,-2.5605,-2.5605,-2.5606,-2.5606,-2.5606,-2.5559,-2.5557,-2.5555,-2.5554,-2.5555,-2.5557,-2.5558,0,0,0,0,0,0,0,0,0,0,0,0,0,-2.5572,-2.5561,-2.5605,-2.5581,-2.5579,-2.5606,-2.5606,-2.5606,-2.5559,-2.5557,-2.5555,-2.5553,-2.5555,-2.5556,-2.5558,-2.5608,0,0,-2.5564,-2.5565,0,0,0,0,0,0,0,0,-2.5571,-2.5574,-2.5585,-2.5583,-2.5581,-2.558,-2.5591,-2.5607,-2.5559,-2.5567,-2.5554,-2.5552,-2.5565,-2.5566,-2.5571,-2.5608,-2.5608,-2.5564,-2.5565,-2.5566,-2.5566,0,0,0,0,0,0,0,-2.5571,-2.5573,-2.5605,-2.5585,-2.5582,-2.557,-2.557,-2.5593,-2.5577,-2.5566,-2.5562,-2.5563,-2.5564,-2.5569,-2.557,-2.5608,-2.5564,-2.5566,-2.5567,-2.5567,-2.5686,-2.5688,0,0,0,0,0,0,-2.5573,-2.5573,-2.5605,-2.5605,-2.5571,-2.5573,-2.5572,-2.5582,-2.5576,-2.5573,-2.5565,-2.5561,-2.5567,-2.5568,-2.557,-2.5628,-2.5566,-2.5568,-2.5569,-2.5684,-2.5686,-2.5689,0,0,0,0,0,0,-2.5572,-2.5576,-2.5605,-2.5588,-2.5591,-2.5575,-2.5587,-2.5583,-2.5588,-2.5575,-2.5572,-2.5573,-2.5565,-2.5567,-2.5599,-2.5628,-2.5568,-2.557,-2.5682,-2.5685,-2.5688,-2.5745,0,0,0,0,0,0,-2.5571,-2.5576,-2.5595,-2.5589,-2.5592,-2.5635,-2.5589,-2.5585,-2.5592,-2.5587,-2.5583,-2.558,-2.5564,-2.5596,-2.5601,-2.5629,-2.5571,-2.5679,-2.5683,-2.5687,-2.574,-2.5749,-2.5757,0,0,0,0,0,-2.557,-2.5611,-2.5597,-2.5601,-2.5616,-2.5636,-2.5638,-2.5619,-2.5594,-2.5613,-2.5605,-2.558,-2.5623,-2.56,-2.5604,-2.5634,-2.5677,-2.5682,-2.5686,-2.5736,-2.5748,-2.5757,0,0,0,0,0,0,-2.5621,-2.561,-2.5594,-2.5635,-2.5637,-2.5628,-2.5651,-2.5631,-2.564,-2.5635,-2.5611,-2.561,-2.5646,-2.5642,-2.5617,-2.5681,-2.5646,-2.5652,-2.5682,-2.5693,-2.5701,-2.5702,-2.5573,0,0,0,0,0,-2.5638,-2.5656,-2.5644,-2.5682,-2.5683,-2.5667,-2.5676,-2.5661,-2.5662,-2.5663,-2.5656,-2.5658,-2.5672,-2.5682,-2.5694,-2.5739,-2.5738,-2.5761,-2.577,-2.5777,-2.5782,-2.5806,-2.5817,-2.5704,-2.5704,-2.5704,0,0,-2.5671,-2.5667,-2.568,-2.5692,-2.5692,-2.5711,-2.5669,-2.569,-2.5704,-2.5666,-2.5695,-2.5691,-2.5691,-2.573,-2.5746,-2.5728,-2.5813,-2.5783,-2.5788,-2.579,-2.5812,-2.5823,-2.5832,-2.5707,-2.5706,-2.5706,0,0,-2.5743,-2.5741,-2.5772,-2.5773,-2.5773,-2.5762,-2.577,-2.5764,-2.576,-2.5789,-2.576,-2.5776,-2.5801,-2.5802,-2.5806,-2.5878,-2.5856,-2.5882,-2.5927,-2.595,-2.5959,-2.5967,-2.5993,-2.6003,-2.5887,-2.5887,-2.5888,0,-2.5785,-2.5813,-2.5791,-2.5815,-2.5821,-2.5786,-2.5817,-2.5819,-2.5823,-2.5828,-2.5808,-2.5838,-2.5836,-2.5874,-2.5892,-2.5896,-2.5904,-2.5883,-2.596,-2.5967,-2.5974,-2.5999,-2.6009,-2.5891,-2.589,-2.589,-2.589,0,-2.5864,-2.5884,-2.5909,-2.5914,-2.5923,-2.595,-2.5932,-2.5943,-2.5927,-2.5918,-2.5948,-2.5944,-2.5955,-2.5963,-2.5947,-2.5999,-2.5988,-2.5964,-2.5928,-2.5989,-2.6012,-2.6021,-2.5896,-2.5894,-2.5893,-2.5893,0,0,-2.597,-2.5962,-2.5972,-2.5974,-2.5971,-2.5986,-2.6011,-2.6022,-2.6033,-2.6036,-2.6057,-2.6079,-2.6056,-2.6061,-2.6045,-2.6065,-2.6123,-2.6039,-2.6038,-2.6055,-2.6181,-2.62,-2.6211,-2.6108,-2.6109,-2.6111,-2.6181,0,-2.604,-2.6084,-2.6064,-2.611,-2.6128,-2.6095,-2.6117,-2.6118,-2.611,-2.6124,-2.6114,-2.6131,-2.6099,-2.6102,-2.6121,-2.6112,-2.6148,-2.6106,-2.6128,-2.6129,-2.613,-2.6223,-2.6243,-2.631,-2.619,-2.6191,-2.6192,0,-2.6128,-2.6136,-2.6183,-2.6178,-2.6184,-2.6205,-2.6213,-2.6226,-2.6226,-2.6219,-2.6224,-2.6203,-2.6228,-2.6191,-2.6225,-2.6197,-2.6204,-2.6201,-2.6203,-2.6205,-2.6165,-2.6229,-2.6331,-2.6341,-2.6206,-2.6205,-2.6204,0,-2.6201,-2.6223,-2.6255,-2.6257,-2.6251,-2.6266,-2.6264,-2.6262,-2.627,-2.6277,-2.6282,-2.6291,-2.6297,-2.6305,-2.6287,-2.6262,-2.6323,-2.6285,-2.6318,-2.6319,-2.6334,-2.6333,-2.644,-2.6336,-2.6336,-2.6336,-2.6336,0,-2.6282,-2.6313,-2.6288,-2.6307,-2.6341,-2.6317,-2.6351,-2.6345,-2.6344,-2.6362,-2.6333,-2.635,-2.6325,-2.634,-2.6326,-2.6356,-2.6359,-2.6354,-2.635,-2.6357,-2.6358,-2.6363,-2.6358,-2.6339,-2.6338,-2.6338,-2.6337,0,-2.6371,-2.6355,-2.6387,-2.6378,-2.6377,-2.6402,-2.6394,-2.6412,-2.6401,-2.6424,-2.6428,-2.6412,-2.6428,-2.641,-2.6425,-2.6415,-2.6457,-2.6445,-2.6457,-2.6454,-2.6489,-2.6487,-2.6603,-2.6617,-2.6504,-2.6505,-2.6506,0,-2.6424,-2.6447,-2.6441,-2.6451,-2.6451,-2.6467,-2.6474,-2.6452,-2.6461,-2.6463,-2.648,-2.6493,-2.6503,-2.653,-2.6519,-2.653,-2.652,-2.6559,-2.6521,-2.6528,-2.6522,-2.6521,-2.6524,-2.6568,-2.6569,-2.657,-2.6571,0,-2.6522,-2.6512,-2.6525,-2.6534,-2.6544,-2.655,-2.6554,-2.6564,-2.6541,-2.6552,-2.6568,-2.6576,-2.659,-2.6604,-2.6612,-2.6609,-2.6587,-2.6583,-2.6592,-2.66,-2.6606,-2.6605,-2.648,-2.6581,-2.658,-2.6579,-2.6579,-2.6578,-2.6595,-2.6614,-2.6612,-2.6627,-2.6627,-2.6632,-2.6648,-2.6639,-2.6652,-2.6663,-2.6648,-2.6668,-2.6667,-2.6675,-2.6675,-2.669,-2.6673,-2.6686,-2.6689,-2.6693,-2.6698,-2.6603,-2.6692,-2.6691,-2.6691,-2.6691,-2.669,0,-2.6692,-2.6689,-2.6702,-2.6709,-2.672,-2.6697,-2.67,-2.6712,-2.673,-2.673,-2.674,-2.6759,-2.6772,-2.6762,-2.6773,-2.6787,-2.6777,-2.679,-2.679,-2.679,-2.6712,-2.6705,-2.6798,-2.6798,-2.6798,-2.6798,-2.6798,-2.6798,-2.6743,-2.6774,-2.6765,-2.6796,-2.6792,-2.6812,-2.6816,-2.682,-2.682,-2.6842,-2.6853,-2.6846,-2.6843,-2.6853,-2.6864,-2.6861,-2.6867,-2.6884,-2.6878,-2.6806,-2.6795,-2.6785,-2.6778,-2.6886,-2.6886,-2.6954,-2.6955,-2.6955]}]]